Regional Weather Roundup
Issued by NWS Mt. Holly, NJ

Current Version | Previous Version | Text Only | Print | Product List | Glossary On
Versions: 1 2 3 4 5 6 7 8 9 10 11 12 13 14 15 16 17 18 19 20 21 22 23 24 25 26 27 28 29 30 31 32 33 34 35 36 37 38 39 40 41 42 43 44 45 46 47 48 49 50
000
ASUS41 KPHI 220610
RWRPHI

REGIONAL WEATHER ROUNDUP
NATIONAL WEATHER SERVICE MOUNT HOLLY NJ
100 AM EST MON DEC 22 2014

NOTE:  "FAIR" INDICATES FEW OR NO CLOUDS BELOW 12,000 FEET WITH NO
SIGNIFICANT WEATHER AND/OR OBSTRUCTIONS TO VISIBILITY.

 * = STATION DOES NOT REPORT PRECIPITATION (E.G. RAIN, SNOW, ETC.)
        OR FOG.

NJZ015>026-220700-
SOUTHERN NEW JERSEY

CITY           SKY/WX    TMP DP  RH WIND       PRES   REMARKS
POMONA         CLEAR     25  21  85 CALM      30.32F
6HR MIN TEMP:  23; 6HR MAX TEMP:  29;

RIO GRANDE*    PTCLDY    28  21  74 N5        30.31F WCI  23
MILLVILLE      PTCLDY    23  20  88 CALM      30.33S
WRIGHTSTOWN    CLOUDY    32  26  79 N5        30.29F WCI  27
MOUNT HOLLY    CLOUDY    28  24  85 CALM      30.32F
TRENTON        CLOUDY    33  24  69 CALM      30.31F
6HR MIN TEMP:  31; 6HR MAX TEMP:  34;


$$
NJZ001>014-220700-
NORTHERN NEW JERSEY

CITY           SKY/WX    TMP DP  RH WIND       PRES   REMARKS
SUSSEX         CLOUDY    31  26  82 NE6       30.31F WCI  25
ANDOVER*         N/A     31  26  82 CALM      30.31F
MORRISTOWN     CLOUDY    36  28  75 CALM      30.32F
NEWARK         CLOUDY    34  30  85 N7        30.33F WCI  28
TETERBORO      CLOUDY    35  28  75 N6        30.32F WCI  30
CALDWELL       CLOUDY    33  28  81 CALM      30.33S
SOMERVILLE     CLOUDY    35  27  72 CALM      30.31F
ALLAIRE*       CLOUDY    36  27  69 N5        30.31F WCI  32
TOMS RIVER*    CLOUDY    34  27  75 N5        30.31F WCI  30

$$
PAZ043-044-047-054-055-060>062-066>071-220700-
EASTERN PENNSYLVANIA

CITY           SKY/WX    TMP DP  RH WIND       PRES   REMARKS
PHILADELPHIA   PTCLDY    29  21  72 N3        30.32F
6HR MIN TEMP:  28; 6HR MAX TEMP:  35;

NORTH PHILA    CLOUDY    32  22  66 CALM      30.33F
BLUE BELL      MOCLDY    28  27  93 CALM      30.30F
DOYLESTOWN     CLOUDY    30  25  81 CALM      30.30F
QUAKERTOWN*    CLOUDY    27  25  93 CALM      30.31F
POTTSTOWN      MOCLDY    21  18  88 CALM      30.32F
LANCASTER      CLEAR     22  17  81 CALM      30.30F HAZE
COATESVILLE    CLEAR     27  23  86 CALM      30.30S
READING        CLEAR     23  19  85 N3        30.31F
6HR MIN TEMP:  22; 6HR MAX TEMP:  30;

ALLENTOWN      CLOUDY    30  22  72 CALM      30.32F
6HR MIN TEMP:  25; 6HR MAX TEMP:  30;

MOUNT POCONO   CLOUDY    27  21  78 E5        30.22F WCI  22
6HR MIN TEMP:  26; 6HR MAX TEMP:  28;

HAZLETON       CLOUDY    27  23  86 CALM      30.27F
WILKES BARRE   CLOUDY    30  22  72 CALM      30.28F

$$
DEZALL-MDZ008-012-015-019-020-220700-
DELAWARE AND EASTERN MARYLAND

CITY           SKY/WX    TMP DP  RH WIND       PRES   REMARKS
WILMINGTON     CLEAR     27  21  78 NW5       30.33F WCI  22
6HR MIN TEMP:  25; 6HR MAX TEMP:  32;

DOVER          PTCLDY    25  24  93 N6        30.30F WCI  18
GEORGETOWN     MOCLDY    26  23  88 NE3       30.31F
6HR MIN TEMP:  26; 6HR MAX TEMP:  31;

EASTON         MOCLDY    29  26  89 CALM      30.35F
PATUXENT       CLOUDY    32  26  78 CALM      30.32S
OCEAN CITY     MOCLDY    29  25  85 N6        30.30F FOG     WCI  23
WALLOPS ISLAND CLOUDY    31  26  82 NW5       30.32R WCI  26
CAMBRIDGE      MOCLDY    32  27  80 NE3       30.31S
SALISBURY      CLOUDY    31  24  75 NW3       30.31F

$$
PAZ001-021-NYZ056-072-MDZ011-DCZ001-220700-
OTHER NEARBY LOCATIONS

CITY           SKY/WX    TMP DP  RH WIND       PRES   REMARKS
HARRISBURG     PTCLDY    22  19  89 CALM      30.31F
STATE COLLEGE  PTCLDY    23  20  91 CALM      30.25F
WILLIAMSPORT   CLEAR     22  17  81 CALM      30.32F
BINGHAMTON     CLOUDY    26  22  84 SE5       30.25F WCI  20
NEW YORK CITY  CLOUDY    35  29  78 NE5       30.34F WCI  31
BALTIMORE      PTCLDY    29  22  75 CALM      30.32S
WASHINGTON DC  MOCLDY    34  25  69 NE3       30.35R

$$


USA.gov is the U.S. government's official web portal to all federal, state and local government web resources and services.